Location: Northcutt
(34.7304°N, 84.4305°W)
Time: 11:21:51
(UTC+00:00)

X-37B - Visible Passes

Search period start: 12 August 2022 00:00
Search period end: 22 August 2022 00:00
Orbit: 328 x 343 km, 45.0° (Epoch: 27 July)

Date Brightness Start Highest point End Pass type
(mag) Time Alt. Az. Time Alt. Az. Time Alt. Az.
12 Aug 3.4 09:32:29 10° NNW 09:34:00 13° N 09:35:30 10° NE visible
13 Aug 2.9 09:52:31 10° NNW 09:54:47 20° NNE 09:57:04 10° ENE visible
14 Aug 3.5 08:39:22 13° N 08:39:26 13° N 08:40:56 10° NE visible
14 Aug 1.5 10:12:38 10° NW 10:15:26 44° NNE 10:18:13 10° ESE visible
15 Aug 2.8 08:59:31 19° N 09:00:13 20° NNE 09:02:29 10° ENE visible
16 Aug 1.5 09:20:00 32° NNW 09:20:51 43° NNE 09:23:39 10° ESE visible
17 Aug 0.3 09:40:53 49° WSW 09:41:19 57° SW 09:44:09 10° SE visible
18 Aug 2.2 10:02:13 16° SSW 10:02:13 16° SSW 10:03:35 10° S visible
20 Aug 1.5 01:05:36 10° SSW 01:07:54 23° SE 01:09:15 16° E visible
21 Aug 0.1 01:25:26 10° SW 01:28:13 83° SSE 01:29:55 21° ENE visible
